Flag for Guyana

Past Weather in Georgetown, Guyana — Yesterday and Last 2 Weeks

Now
77 °F

Thunderstorms. Partly cloudy.


Feels Like: 78 °F
Forecast: 85 / 76 °F
Wind: 5 mph from Southeast

Location: Georgetown/Cheddi Jagan International Airport

Current Time: Jul 10, 2020 at 2:18:59 am

Latest Report: Jul 10, 2020 at 2:00 am


Visibility: 6 mi

Pressure: 29.89 "Hg

Humidity: 94%

Dew Point: 75 °F

Location of GeorgetownLocation

Past Weather in Georgetown — Graph

°F

Georgetown Temperature Yesterday

Maximum temperature yesterday: 90 °F (at 1:00 pm)
Minimum temperature yesterday: 72 °F (at 4:00 am)
Average temperature yesterday: 80 °F

High & Low Weather Summary for the Past Weeks

 TemperatureHumidityPressure
High90 °F (Jul 3, 2:00 pm)100% (Jun 25, 2:00 am)29.98 "Hg (Jun 25, 2:00 am)
Low72 °F (Jul 8, 6:00 am)62% (Jun 30, 3:00 pm)29.77 "Hg (Jun 27, 4:00 pm)
Average79 °F89%29.89 "Hg
* Reported Jun 24 11:00 pm — Jul 9 11:00 pm, Georgetown. Weather by CustomWeather, © 2020

Note: Actual official high and low records may vary slightly from our data, if they occured in-between our weather recording intervals... More about our weather records

Georgetown Weather History for the Previous 24 Hours

Scroll right to see more
 ConditionsComfort  
Time TempWeatherWind HumidityBarometerVisibility
11:00 pm
Thu, Jul 9
79 °FPassing clouds.5 mph94%29.92 "HgN/A
10:00 pm79 °FPassing clouds.2 mph94%29.92 "HgN/A
9:00 pm81 °FPassing clouds.5 mph89%29.92 "HgN/A
8:00 pm81 °FThunderstorms. Passing clouds.5 mph89%29.92 "HgN/A
7:06 pm81 °FThunderstorms. Passing clouds.5 mph89%29.86 "HgN/A
7:00 pm81 °FPassing clouds.5 mph89%29.86 "HgN/A
6:00 pm82 °FPassing clouds.14 mph84%29.86 "HgN/A
5:00 pm84 °FPassing clouds.14 mph74%29.83 "HgN/A
4:00 pm84 °FPassing clouds.12 mph74%29.83 "HgN/A
3:00 pm82 °FThunderstorms. Scattered clouds.7 mph89%29.83 "HgN/A
2:00 pm81 °FThunderstorms. Partly sunny.12 mph89%29.86 "HgN/A
1:12 pm86 °FThunderstorms. Partly sunny.12 mph70%29.89 "HgN/A
1:00 pm90 °FScattered showers. Partly sunny.5 mph63%29.89 "HgN/A
12:00 pm88 °FPartly sunny.2 mph66%29.92 "HgN/A
11:00 am88 °FPartly sunny.7 mph66%29.95 "HgN/A
10:00 am84 °FPartly sunny.2 mph74%29.95 "HgN/A
9:00 am81 °FPassing clouds.5 mph84%29.95 "HgN/A
8:00 am77 °FPassing clouds.5 mph89%29.95 "HgN/A
7:00 am75 °FScattered clouds.5 mph100%29.92 "HgN/A
6:00 am72 °FPassing clouds.5 mph100%29.92 "HgN/A
5:00 am72 °FPassing clouds.5 mph100%29.89 "HgN/A
4:00 am72 °FPassing clouds.2 mph100%29.89 "HgN/A
3:00 am73 °FPassing clouds.2 mph100%29.89 "HgN/A
2:00 am73 °FSprinkles. Partly cloudy.5 mph94%29.89 "HgN/A
Weather by CustomWeather, © 2020

See weather overview